{"data":{"norad_id":59837,"epoch":"2026-05-25T04:08:16.713888Z","epoch_age_seconds":53480,"freshness":"FRESH","line1":"1 59837U 24097C   26145.17241567  .00009537  00000+0  35545-3 0  9993","line2":"2 59837  43.0000 202.4442 0001763 275.4385  84.6265 15.27596128113619","mean_motion":15.27596128,"eccentricity":0.0001763,"inclination_deg":43,"raan_deg":202.4442,"arg_perigee_deg":275.4385,"mean_anomaly_deg":84.6265,"bstar":0.00035545,"rev_number":11361,"period_min":94.265753467529,"perigee_km":481.79118483578,"apogee_km":484.21042202527,"semimajor_km":6861.1378034305,"source":"CELESTRAK","updated_at":"2026-05-25T13:38:19.085379Z"}}